Time,TemperatureF,DewpointF,PressureIn,WindDirection,WindDirectionDegrees,WindSpeedMPH,WindSpeedGustMPH,Humidity,HourlyPrecipIn,Conditions,Clouds,dailyrainin,SoftwareType,DateUTC
2013-03-31 00:03:00,38.0,-99.9,30.08,SSW,202,0.0,1.0,88,0.00,,,0.00,,2013-03-31 04:03:00,
2013-03-31 00:13:00,38.0,35.0,30.08,SSW,202,0.0,1.0,88,0.00,,,0.00,,2013-03-31 04:13:00,
2013-03-31 00:23:00,37.0,34.0,30.08,SSW,202,0.0,4.0,89,0.00,,,0.00,,2013-03-31 04:23:00,
2013-03-31 00:33:00,37.0,34.0,30.08,SSW,202,0.0,4.0,89,0.00,,,0.00,,2013-03-31 04:33:00,
2013-03-31 00:42:00,37.0,34.0,30.08,SSW,202,0.0,4.0,89,0.00,,,0.00,,2013-03-31 04:42:00,
2013-03-31 00:53:00,36.0,33.0,30.08,SW,231,2.0,6.0,90,0.00,,,0.00,,2013-03-31 04:53:00,
2013-03-31 01:02:00,36.0,34.0,30.08,SW,230,3.0,4.0,91,0.00,,,0.00,,2013-03-31 05:02:00,
2013-03-31 01:13:00,36.0,34.0,30.08,SW,230,3.0,4.0,91,0.00,,,0.00,,2013-03-31 05:13:00,
2013-03-31 01:22:00,35.0,32.0,30.08,SW,230,0.0,4.0,89,0.00,,,0.00,,2013-03-31 05:22:00,
2013-03-31 01:32:00,35.0,33.0,30.08,SW,229,1.0,3.0,91,0.00,,,0.00,,2013-03-31 05:32:00,
2013-03-31 01:42:00,35.0,33.0,30.08,SW,229,1.0,3.0,91,0.00,,,0.00,,2013-03-31 05:42:00,
2013-03-31 01:53:00,34.0,31.0,30.09,WSW,256,1.0,6.0,90,0.00,,,0.00,,2013-03-31 05:53:00,
2013-03-31 02:02:00,34.0,32.0,30.09,WSW,257,0.0,4.0,91,0.00,,,0.00,,2013-03-31 06:02:00,
2013-03-31 02:12:00,34.0,32.0,30.09,WSW,257,0.0,4.0,91,0.00,,,0.00,,2013-03-31 06:12:00,
2013-03-31 02:22:00,34.0,31.0,30.09,WSW,257,0.0,3.0,89,0.00,,,0.00,,2013-03-31 06:22:00,
2013-03-31 02:33:00,33.0,31.0,30.09,WSW,254,2.0,8.0,91,0.00,,,0.00,,2013-03-31 06:33:00,
2013-03-31 02:42:00,33.0,31.0,30.09,WSW,254,2.0,8.0,91,0.00,,,0.00,,2013-03-31 06:42:00,
2013-03-31 02:52:00,33.0,31.0,30.09,West,263,0.0,0.0,91,0.00,,,0.00,,2013-03-31 06:52:00,
2013-03-31 03:02:00,33.0,30.0,30.09,West,263,0.0,0.0,90,0.00,,,0.00,,2013-03-31 07:02:00,
2013-03-31 03:12:00,33.0,30.0,30.09,West,263,0.0,0.0,90,0.00,,,0.00,,2013-03-31 07:12:00,
2013-03-31 03:22:00,32.0,29.0,30.09,West,263,0.0,0.0,90,0.00,,,0.00,,2013-03-31 07:22:00,
2013-03-31 03:33:00,32.0,29.0,30.08,West,263,0.0,0.0,90,0.00,,,0.00,,2013-03-31 07:33:00,
2013-03-31 03:43:00,32.0,29.0,30.08,West,263,0.0,0.0,90,0.00,,,0.00,,2013-03-31 07:43:00,
2013-03-31 03:53:00,32.0,29.0,30.08,West,263,0.0,0.0,90,0.00,,,0.00,,2013-03-31 07:53:00,
2013-03-31 04:02:00,31.0,28.0,30.08,West,263,0.0,0.0,90,0.00,,,0.00,,2013-03-31 08:02:00,
2013-03-31 04:12:00,31.0,28.0,30.08,West,263,0.0,0.0,90,0.00,,,0.00,,2013-03-31 08:12:00,
2013-03-31 04:22:00,31.0,28.0,30.08,West,263,0.0,3.0,90,0.00,,,0.00,,2013-03-31 08:22:00,
2013-03-31 04:32:00,31.0,28.0,30.08,West,263,0.0,3.0,90,0.00,,,0.00,,2013-03-31 08:32:00,
2013-03-31 04:42:00,31.0,28.0,30.08,West,263,0.0,3.0,90,0.00,,,0.00,,2013-03-31 08:42:00,
2013-03-31 04:52:00,31.0,29.0,30.09,West,263,0.0,0.0,91,0.00,,,0.00,,2013-03-31 08:52:00,
2013-03-31 05:02:00,31.0,29.0,30.09,West,262,2.0,3.0,91,0.00,,,0.00,,2013-03-31 09:02:00,
2013-03-31 05:12:00,31.0,29.0,30.09,West,262,2.0,3.0,91,0.00,,,0.00,,2013-03-31 09:12:00,
2013-03-31 05:22:00,31.0,29.0,30.09,SW,226,0.0,3.0,91,0.00,,,0.00,,2013-03-31 09:22:00,
2013-03-31 05:33:00,31.0,29.0,30.09,SW,225,2.0,3.0,91,0.00,,,0.00,,2013-03-31 09:33:00,
2013-03-31 05:42:00,31.0,29.0,30.09,SW,225,2.0,3.0,91,0.00,,,0.00,,2013-03-31 09:42:00,
2013-03-31 05:53:00,30.0,28.0,30.10,SW,226,0.0,0.0,91,0.00,,,0.00,,2013-03-31 09:53:00,
2013-03-31 06:03:00,30.0,28.0,30.09,SW,225,1.0,2.0,91,0.00,,,0.00,,2013-03-31 10:03:00,
2013-03-31 06:13:00,30.0,28.0,30.09,SW,225,1.0,2.0,91,0.00,,,0.00,,2013-03-31 10:13:00,
2013-03-31 06:24:00,30.0,28.0,30.09,SW,226,0.0,3.0,91,0.00,,,0.00,,2013-03-31 10:24:00,
2013-03-31 06:33:00,30.0,28.0,30.09,SW,226,0.0,0.0,91,0.00,,,0.00,,2013-03-31 10:33:00,
2013-03-31 06:42:00,30.0,28.0,30.09,SW,226,0.0,0.0,91,0.00,,,0.00,,2013-03-31 10:42:00,
2013-03-31 06:53:00,30.0,28.0,30.09,SW,226,0.0,0.0,91,0.00,,,0.00,,2013-03-31 10:53:00,
2013-03-31 07:03:00,30.0,28.0,30.10,SW,226,0.0,0.0,92,0.00,,,0.00,,2013-03-31 11:03:00,
2013-03-31 07:12:00,30.0,28.0,30.10,SW,226,0.0,0.0,92,0.00,,,0.00,,2013-03-31 11:12:00,
2013-03-31 07:23:00,30.0,28.0,30.10,SW,226,0.0,0.0,91,0.00,,,0.00,,2013-03-31 11:23:00,
2013-03-31 07:32:00,30.0,28.0,30.11,SW,226,0.0,3.0,92,0.00,,,0.00,,2013-03-31 11:32:00,
2013-03-31 07:42:00,30.0,28.0,30.11,SW,226,0.0,3.0,92,0.00,,,0.00,,2013-03-31 11:42:00,
2013-03-31 07:53:00,32.0,30.0,30.11,SW,226,0.0,0.0,92,0.00,,,0.00,,2013-03-31 11:53:00,
2013-03-31 08:03:00,33.0,31.0,30.11,SW,226,0.0,0.0,92,0.00,,,0.00,,2013-03-31 12:03:00,
2013-03-31 08:12:00,33.0,31.0,30.11,SW,226,0.0,0.0,92,0.00,,,0.00,,2013-03-31 12:12:00,
2013-03-31 08:22:00,37.0,34.0,30.11,SW,226,0.0,0.0,88,0.00,,,0.00,,2013-03-31 12:22:00,
2013-03-31 08:33:00,40.0,36.0,30.11,SW,226,0.0,1.0,84,0.00,,,0.00,,2013-03-31 12:33:00,
2013-03-31 08:42:00,40.0,36.0,30.11,SW,226,0.0,1.0,84,0.00,,,0.00,,2013-03-31 12:42:00,
2013-03-31 08:53:00,42.0,36.0,30.11,SW,226,0.0,0.0,78,0.00,,,0.00,,2013-03-31 12:53:00,
2013-03-31 09:02:00,44.0,36.0,30.11,SSW,201,5.0,7.0,72,0.00,,,0.00,,2013-03-31 13:02:00,
2013-03-31 09:12:00,44.0,36.0,30.11,SSW,201,5.0,7.0,72,0.00,,,0.00,,2013-03-31 13:12:00,
2013-03-31 09:22:00,47.0,35.0,30.10,SSW,203,0.0,5.0,64,0.00,,,0.00,,2013-03-31 13:22:00,
2013-03-31 09:32:00,48.0,35.0,30.10,SSW,205,2.0,5.0,61,0.00,,,0.00,,2013-03-31 13:32:00,
2013-03-31 09:42:00,48.0,35.0,30.10,SSW,205,2.0,5.0,61,0.00,,,0.00,,2013-03-31 13:42:00,
2013-03-31 09:53:00,49.0,34.0,30.10,SSW,198,3.0,6.0,57,0.00,,,0.00,,2013-03-31 13:53:00,
2013-03-31 10:02:00,51.0,34.0,30.10,SW,218,1.0,7.0,52,0.00,,,0.00,,2013-03-31 14:02:00,
2013-03-31 10:12:00,51.0,34.0,30.10,SW,218,1.0,7.0,52,0.00,,,0.00,,2013-03-31 14:12:00,
2013-03-31 10:22:00,52.0,31.0,30.10,SSW,206,7.0,10.0,44,0.00,,,0.00,,2013-03-31 14:22:00,
2013-03-31 10:33:00,53.0,31.0,30.10,SSW,204,5.0,10.0,42,0.00,,,0.00,,2013-03-31 14:33:00,
2013-03-31 10:43:00,53.0,31.0,30.10,SSW,204,5.0,10.0,42,0.00,,,0.00,,2013-03-31 14:43:00,
2013-03-31 10:52:00,54.0,30.0,30.10,SSW,200,7.0,13.0,39,0.00,,,0.00,,2013-03-31 14:52:00,
2013-03-31 11:03:00,53.0,32.0,30.10,WSW,244,3.0,13.0,44,0.00,,,0.00,,2013-03-31 15:03:00,
2013-03-31 11:13:00,53.0,32.0,30.10,WSW,244,3.0,13.0,44,0.00,,,0.00,,2013-03-31 15:13:00,
2013-03-31 11:22:00,52.0,34.0,30.10,SSW,205,7.0,13.0,51,0.00,,,0.00,,2013-03-31 15:22:00,
2013-03-31 11:33:00,52.0,36.0,30.10,SSW,195,6.0,13.0,54,0.00,,,0.00,,2013-03-31 15:33:00,
2013-03-31 11:43:00,52.0,36.0,30.10,SSW,195,6.0,13.0,54,0.00,,,0.00,,2013-03-31 15:43:00,
2013-03-31 11:54:00,52.0,31.0,30.10,SSW,200,8.0,13.0,45,0.00,,,0.00,,2013-03-31 15:54:00,
2013-03-31 12:03:00,52.0,31.0,30.10,SSW,200,8.0,13.0,45,0.00,,,0.00,,2013-03-31 16:03:00,
2013-03-31 12:13:00,52.0,31.0,30.10,SSW,200,8.0,13.0,45,0.00,,,0.00,,2013-03-31 16:13:00,
2013-03-31 12:23:00,53.0,30.0,30.10,South,189,6.0,12.0,41,0.00,,,0.00,,2013-03-31 16:23:00,
2013-03-31 12:33:00,54.0,33.0,30.09,SW,231,8.0,13.0,44,0.00,,,0.00,,2013-03-31 16:33:00,
2013-03-31 12:43:00,54.0,33.0,30.09,SW,231,8.0,13.0,44,0.00,,,0.00,,2013-03-31 16:43:00,
2013-03-31 12:53:00,53.0,34.0,30.09,SW,224,10.0,17.0,48,0.00,,,0.00,,2013-03-31 16:53:00,
2013-03-31 13:03:00,52.0,38.0,30.08,SW,230,8.0,15.0,59,0.00,,,0.00,,2013-03-31 17:03:00,
2013-03-31 13:12:00,52.0,38.0,30.08,SW,230,8.0,15.0,59,0.00,,,0.00,,2013-03-31 17:12:00,
2013-03-31 13:23:00,52.0,39.0,30.08,SW,236,8.0,11.0,62,0.00,,,0.00,,2013-03-31 17:23:00,
2013-03-31 13:32:00,52.0,41.0,30.07,SSW,211,9.0,14.0,65,0.00,,,0.00,,2013-03-31 17:32:00,
2013-03-31 13:43:00,52.0,41.0,30.07,SSW,211,9.0,14.0,65,0.00,,,0.00,,2013-03-31 17:43:00,
2013-03-31 13:52:00,51.0,40.0,30.07,SSW,195,10.0,15.0,67,0.00,,,0.00,,2013-03-31 17:52:00,
2013-03-31 14:03:00,52.0,42.0,30.07,SW,222,7.0,14.0,68,0.00,,,0.00,,2013-03-31 18:03:00,
2013-03-31 14:13:00,52.0,42.0,30.07,SW,222,7.0,14.0,68,0.00,,,0.00,,2013-03-31 18:13:00,
2013-03-31 14:22:00,52.0,39.0,30.06,SSW,198,7.0,13.0,62,0.00,,,0.00,,2013-03-31 18:22:00,
2013-03-31 14:33:00,53.0,37.0,30.05,SSW,207,6.0,13.0,55,0.00,,,0.00,,2013-03-31 18:33:00,
2013-03-31 14:42:00,53.0,37.0,30.05,SSW,207,6.0,13.0,55,0.00,,,0.00,,2013-03-31 18:42:00,
2013-03-31 14:53:00,54.0,35.0,30.04,SW,231,11.0,15.0,49,0.00,,,0.00,,2013-03-31 18:53:00,
2013-03-31 15:03:00,54.0,38.0,30.04,SSW,207,9.0,14.0,54,0.00,,,0.00,,2013-03-31 19:03:00,
2013-03-31 15:12:00,54.0,38.0,30.04,SSW,207,9.0,14.0,54,0.00,,,0.00,,2013-03-31 19:12:00,
2013-03-31 15:22:00,52.0,41.0,30.05,SSW,197,7.0,15.0,66,0.00,,,0.00,,2013-03-31 19:22:00,
2013-03-31 15:33:00,50.0,41.0,30.04,SW,217,9.0,15.0,70,0.00,,,0.00,,2013-03-31 19:33:00,
2013-03-31 15:43:00,50.0,41.0,30.04,SW,217,9.0,15.0,70,0.00,,,0.00,,2013-03-31 19:43:00,
2013-03-31 15:54:00,50.0,40.0,30.03,SW,231,4.0,14.0,69,0.00,,,0.00,,2013-03-31 19:54:00,
2013-03-31 16:03:00,50.0,41.0,30.03,SW,215,6.0,13.0,70,0.00,,,0.00,,2013-03-31 20:03:00,
2013-03-31 16:12:00,50.0,41.0,30.03,SW,215,6.0,13.0,70,0.00,,,0.00,,2013-03-31 20:12:00,
2013-03-31 16:23:00,51.0,40.0,30.02,SW,236,3.0,10.0,66,0.00,,,0.00,,2013-03-31 20:23:00,
2013-03-31 16:34:00,51.0,40.0,30.02,South,189,3.0,10.0,67,0.00,,,0.00,,2013-03-31 20:34:00,
2013-03-31 16:43:00,51.0,40.0,30.02,South,189,3.0,10.0,67,0.00,,,0.00,,2013-03-31 20:43:00,
2013-03-31 16:53:00,51.0,39.0,30.01,SW,215,4.0,10.0,64,0.00,,,0.00,,2013-03-31 20:53:00,
2013-03-31 17:03:00,51.0,39.0,30.01,SW,215,4.0,10.0,64,0.00,,,0.00,,2013-03-31 21:03:00,
2013-03-31 17:13:00,51.0,39.0,30.01,SW,215,4.0,10.0,64,0.00,,,0.00,,2013-03-31 21:13:00,
2013-03-31 17:22:00,51.0,39.0,30.01,SSW,204,7.0,12.0,64,0.00,,,0.00,,2013-03-31 21:22:00,
2013-03-31 17:34:00,50.0,38.0,30.01,SSW,201,7.0,12.0,64,0.00,,,0.00,,2013-03-31 21:34:00,
2013-03-31 17:44:00,50.0,38.0,30.01,SSW,201,7.0,12.0,64,0.00,,,0.00,,2013-03-31 21:44:00,
2013-03-31 17:54:00,50.0,39.0,30.01,SSW,200,7.0,13.0,67,0.00,,,0.00,,2013-03-31 21:54:00,
2013-03-31 18:04:00,50.0,39.0,30.01,SSW,200,7.0,13.0,67,0.00,,,0.00,,2013-03-31 22:04:00,
2013-03-31 18:13:00,50.0,39.0,30.01,SSW,200,7.0,13.0,67,0.00,,,0.00,,2013-03-31 22:13:00,
2013-03-31 18:23:00,48.0,41.0,30.01,SSW,198,8.0,13.0,76,0.00,,,0.00,,2013-03-31 22:23:00,
2013-03-31 18:33:00,47.0,41.0,30.00,SSW,194,8.0,13.0,79,0.00,,,0.00,,2013-03-31 22:33:00,
2013-03-31 18:43:00,47.0,41.0,30.00,SSW,194,8.0,13.0,79,0.00,,,0.00,,2013-03-31 22:43:00,
2013-03-31 18:53:00,47.0,41.0,29.99,South,186,6.0,11.0,79,0.00,,,0.00,,2013-03-31 22:53:00,
2013-03-31 19:03:00,47.0,41.0,29.99,South,175,5.0,11.0,78,0.00,,,0.00,,2013-03-31 23:03:00,
2013-03-31 19:13:00,47.0,41.0,29.99,South,175,5.0,11.0,78,0.00,,,0.00,,2013-03-31 23:13:00,
2013-03-31 19:22:00,47.0,41.0,29.98,South,172,5.0,12.0,78,0.00,,,0.00,,2013-03-31 23:22:00,
2013-03-31 19:32:00,47.0,40.0,29.98,SSE,166,8.0,12.0,76,0.00,,,0.00,,2013-03-31 23:32:00,
2013-03-31 19:43:00,47.0,40.0,29.98,SSE,166,8.0,12.0,76,0.00,,,0.00,,2013-03-31 23:43:00,
2013-03-31 19:53:00,47.0,39.0,29.97,South,182,8.0,14.0,75,0.00,,,0.00,,2013-03-31 23:53:00,
2013-03-31 20:02:00,47.0,39.0,29.97,South,172,7.0,16.0,74,0.00,,,0.00,,2013-04-01 00:02:00,
2013-03-31 20:13:00,47.0,39.0,29.97,South,172,7.0,16.0,74,0.00,,,0.00,,2013-04-01 00:13:00,
2013-03-31 20:22:00,46.0,38.0,29.96,SSE,165,6.0,12.0,73,0.00,,,0.00,,2013-04-01 00:22:00,
2013-03-31 20:32:00,46.0,38.0,29.96,SSE,165,6.0,12.0,73,0.00,,,0.00,,2013-04-01 00:32:00,
2013-03-31 20:43:00,46.0,38.0,29.96,SSE,165,6.0,12.0,73,0.00,,,0.00,,2013-04-01 00:43:00,
2013-03-31 20:53:00,47.0,37.0,29.94,SSE,166,8.0,13.0,69,0.00,,,0.00,,2013-04-01 00:53:00,
2013-03-31 21:03:00,47.0,37.0,29.94,SSE,167,6.0,16.0,69,0.00,,,0.00,,2013-04-01 01:03:00,
2013-03-31 21:13:00,47.0,37.0,29.94,SSE,167,6.0,16.0,69,0.00,,,0.00,,2013-04-01 01:13:00,
2013-03-31 21:23:00,47.0,37.0,29.92,SSE,147,8.0,18.0,69,0.00,,,0.00,,2013-04-01 01:23:00,
2013-03-31 21:32:00,47.0,38.0,29.92,South,170,9.0,19.0,70,0.00,,,0.00,,2013-04-01 01:32:00,
2013-03-31 21:41:00,47.0,39.0,29.90,SSE,160,10.0,20.0,73,0.00,,,0.00,,2013-04-01 01:41:00,
2013-03-31 21:42:00,47.0,38.0,29.92,South,170,9.0,19.0,70,0.00,,,0.00,,2013-04-01 01:42:00,
2013-03-31 21:53:00,47.0,38.0,29.91,South,177,11.0,23.0,72,0.00,,,0.00,,2013-04-01 01:53:00,
2013-03-31 22:03:00,47.0,39.0,29.90,SSE,160,10.0,20.0,73,0.00,,,0.00,,2013-04-01 02:03:00,
2013-03-31 22:13:00,47.0,39.0,29.90,SSE,160,10.0,20.0,73,0.00,,,0.00,,2013-04-01 02:13:00,
2013-03-31 22:23:00,47.0,39.0,29.90,SSE,160,10.0,20.0,73,0.00,,,0.00,,2013-04-01 02:23:00,
2013-03-31 22:33:00,47.0,39.0,29.90,SSE,160,10.0,20.0,73,0.00,,,0.00,,2013-04-01 02:33:00,
2013-03-31 22:53:00,46.0,41.0,29.85,SSE,160,11.0,22.0,81,0.00,,,0.00,,2013-04-01 02:53:00,
2013-03-31 23:03:00,45.0,41.0,29.83,SSE,160,10.0,22.0,85,0.01,,,0.01,,2013-04-01 03:03:00,
2013-03-31 23:12:00,45.0,41.0,29.83,SSE,160,10.0,22.0,85,0.01,,,0.01,,2013-04-01 03:12:00,
2013-03-31 23:23:00,45.0,41.0,29.83,SSE,160,10.0,22.0,85,0.01,,,0.01,,2013-04-01 03:23:00,
2013-03-31 23:34:00,45.0,42.0,29.80,SSE,166,12.0,29.0,90,0.01,,,0.02,,2013-04-01 03:34:00,
2013-03-31 23:43:00,45.0,42.0,29.80,SSE,166,12.0,29.0,90,0.01,,,0.02,,2013-04-01 03:43:00,
2013-03-31 23:53:00,45.0,42.0,29.79,SSE,159,12.0,25.0,90,0.01,,,0.02,,2013-04-01 03:53:00,